Home > Weather > Holguín > Past weeks

Flag for Cuba Weather for the Past 2 Weeks in Holguín, Cuba

Now
66 °F

Light rain. Mostly cloudy.


Feels Like: 66 °F
Forecast: N/A
Wind: 6 mph from North

Location: Holguin Civ / Mil

Current Time: Feb 8, 2016 at 6:21:45 PM

Latest Report: Feb 8, 2016 at 5:50 PM


Visibility: 4 mi

Pressure: N/A

Humidity: 88%

Dew point: 63 °F

Location of HolguínLocation

Historic Weather in Holguín — Graph

°F

Holguín Temperature Yesterday

Maximum temperature yesterday: 86 °F (at 11:50 AM)
Minimum temperature yesterday: 64 °F (at 5:50 AM)
Average temperature yesterday: 74 °F

High & Low Weather Summary for the Past Weeks

 TemperatureHumidityPressure
High88 °F (Feb 1, 1:50 PM)94% (Jan 28, 3:50 AM)30.18 "Hg (Jan 28, 3:50 AM)
Low54 °F (Jan 25, 5:51 AM)35% (Feb 4, 2:50 PM)29.92 "Hg (Jan 27, 2:50 PM)
Average74 °F73%30.03 "Hg
* Reported Jan 24 4:51 PM — Feb 8 4:50 PM, Holguín, Weather by CustomWeather, © 2016

Note: Actual official high and low records may vary slightly from our data, if they occured in-between our weather recording intervals... More about our weather records

Advertising

Holguín Weather History for the Previous 24 Hours

 ConditionsComfort  
Time TempWeatherWind HumidityBarometerVisibility
4:50 PM
Mon, Feb 8
70 °FLight rain. Mostly cloudy.10 mph73%N/A4 mi
3:51 PM72 °FLight rain. Mostly cloudy.8 mph69%N/A4 mi
2:50 PM73 °FMore clouds than sun.12 mph69%30.01 "Hg6 mi
1:50 PM75 °FMostly cloudy.8 mph65%30.01 "Hg6 mi
12:50 PM75 °FMostly cloudy.7 mph65%30.04 "Hg6 mi
11:51 AM77 °FPartly sunny.8 mph61%30.04 "HgN/A
10:50 AM75 °FMostly cloudy.8 mph65%30.07 "Hg6 mi
9:50 AM73 °FPartly sunny.7 mph69%30.09 "Hg6 mi
8:50 AM70 °FMore clouds than sun.1 mph78%30.09 "Hg6 mi
7:50 AM68 °FBroken clouds.2 mph83%30.07 "Hg6 mi
6:50 AM66 °FFog.1 mph88%30.07 "Hg4 mi
5:51 AM66 °FFog.No wind83%30.04 "Hg5 mi
4:52 AM64 °FFog.No wind94%30.01 "Hg5 mi
3:52 AM64 °FPassing clouds.1 mph88%30.01 "HgN/A
2:51 AM68 °FPassing clouds.2 mph78%30.04 "HgN/A
1:51 AM68 °FOvercast.6 mph83%30.04 "HgN/A
12:50 AM70 °FOvercast.6 mph78%30.04 "HgN/A
11:50 PM
Sun, Feb 7
70 °FMostly cloudy.7 mph78%30.04 "HgN/A
10:50 PM70 °FOvercast.6 mph78%30.07 "HgN/A
9:51 PM70 °FMostly cloudy.9 mph83%30.04 "HgN/A
8:50 PM72 °FPartly cloudy.10 mph83%30.04 "HgN/A
7:50 PM73 °FPassing clouds.10 mph78%30.01 "HgN/A
6:50 PM75 °FPassing clouds.9 mph78%29.98 "HgN/A
Weather by CustomWeather, © 2016

See weather overviewHow to use our weather pages